• En España
  • Lista de países
  • Para 7 días
  • Temperatura del agua
  • Mapa Satelital
  • El tiempo en el mapa
  • Informadores
  • user-avatar
    Iniciar sesión

    Tiempo cada hora Shapshi

    Hoy, 16 Octubre, Martes

    Tiempo Temperatura Precipitaciones Viento Presión Humedad
    00:00 +8°C° 0 mm 2 mps 754 mmHg 98%
    01:00 +8°C° 0 mm 2 mps 754 mmHg 98%
    02:00 +7°C° 0 mm 3 mps 754 mmHg 97%
    03:00 +7°C° 0 mm 3 mps 753 mmHg 97%
    04:00 +7°C° 0 mm 3 mps 753 mmHg 96%
    05:00 +5°C° 0 mm 3 mps 753 mmHg 96%
    06:00 +5°C° 0 mm 3 mps 753 mmHg 95%
    07:00 +7°C° 0 mm 3 mps 753 mmHg 92%
    08:00 +7°C° 0 mm 4 mps 753 mmHg 89%
    09:00 +8°C° 0 mm 4 mps 753 mmHg 86%
    10:00 +10°C° 0 mm 4 mps 753 mmHg 81%
    11:00 +11°C° 0 mm 4 mps 753 mmHg 77%
    12:00 +12°C° 0 mm 4 mps 753 mmHg 72%
    13:00 +13°C° 0 mm 4 mps 753 mmHg 72%
    14:00 +13°C° 0 mm 4 mps 753 mmHg 72%
    15:00 +13°C° 0 mm 3 mps 753 mmHg 71%
    16:00 +12°C° 0 mm 3 mps 753 mmHg 76%
    17:00 +10°C° 0 mm 3 mps 753 mmHg 82%
    18:00 +9°C° 0 mm 3 mps 753 mmHg 87%
    19:00 +9°C° 0 mm 3 mps 753 mmHg 88%
    20:00 +9°C° 0 mm 3 mps 753 mmHg 88%
    21:00 +8°C° 0 mm 3 mps 752 mmHg 89%
    22:00 +7°C° 0 mm 4 mps 752 mmHg 89%
    23:00 +7°C° 0 mm 4 mps 751 mmHg 89%

    Mañana, 17 Octubre, Miércoles

    Tiempo Temperatura Precipitaciones Viento Presión Humedad
    00:00 +7°C° 0 mm 4 mps 751 mmHg 88%
    01:00 +6°C° 0 mm 4 mps 751 mmHg 87%
    02:00 +6°C° 0 mm 4 mps 750 mmHg 86%
    03:00 +6°C° 0 mm 5 mps 750 mmHg 85%
    04:00 +6°C° 0 mm 5 mps 750 mmHg 87%
    05:00 +5°C° 0 mm 5 mps 750 mmHg 88%
    06:00 +5°C° 0 mm 5 mps 750 mmHg 90%
    07:00 +6°C° 0 mm 5 mps 750 mmHg 88%
    08:00 +7°C° 0 mm 6 mps 750 mmHg 86%
    09:00 +7°C° 0 mm 6 mps 750 mmHg 84%
    10:00 +8°C° 0 mm 6 mps 751 mmHg 82%
    11:00 +8°C° 0 mm 6 mps 751 mmHg 81%
    12:00 +9°C° 0 mm 6 mps 752 mmHg 79%
    13:00 +8°C° 0 mm 6 mps 752 mmHg 76%
    14:00 +8°C° 0 mm 6 mps 753 mmHg 72%
    15:00 +8°C° 0 mm 6 mps 753 mmHg 68%
    16:00 +7°C° 0 mm 5 mps 754 mmHg 71%
    17:00 +6°C° 0 mm 4 mps 755 mmHg 74%
    18:00 +5°C° 0 mm 3 mps 755 mmHg 77%
    19:00 +4°C° 0 mm 3 mps 756 mmHg 80%
    20:00 +4°C° 0 mm 3 mps 756 mmHg 82%
    21:00 +3°C° 0 mm 3 mps 757 mmHg 84%
    22:00 +3°C° 0 mm 3 mps 757 mmHg 86%
    23:00 +3°C° 0 mm 2 mps 757 mmHg 87%

    Pasado mañana, 18 Octubre, Jueves

    Tiempo Temperatura Precipitaciones Viento Presión Humedad
    00:00 +3°C° 0 mm 2 mps 757 mmHg 89%
    01:00 +3°C° 0 mm 2 mps 757 mmHg 89%
    02:00 +3°C° 0 mm 2 mps 758 mmHg 90%
    03:00 +2°C° 0 mm 2 mps 758 mmHg 90%
    04:00 +2°C° 0 mm 2 mps 758 mmHg 90%
    05:00 +2°C° 0 mm 2 mps 758 mmHg 90%
    06:00 +2°C° 0 mm 2 mps 758 mmHg 91%
    07:00 +2°C° 0 mm 3 mps 758 mmHg 86%
    08:00 +3°C° 0 mm 3 mps 758 mmHg 81%
    09:00 +4°C° 0 mm 3 mps 758 mmHg 76%
    10:00 +5°C° 0 mm 3 mps 757 mmHg 71%
    11:00 +8°C° 0 mm 3 mps 757 mmHg 66%
    12:00 +9°C° 0 mm 3 mps 757 mmHg 62%
    13:00 +9°C° 0 mm 3 mps 756 mmHg 63%
    14:00 +9°C° 0 mm 3 mps 756 mmHg 64%
    15:00 +9°C° 0 mm 3 mps 756 mmHg 66%
    16:00 +9°C° 0 mm 3 mps 755 mmHg 70%
    17:00 +8°C° 0 mm 3 mps 755 mmHg 75%
    18:00 +6°C° 0 mm 4 mps 755 mmHg 80%
    19:00 +6°C° 0 mm 4 mps 754 mmHg 82%
    20:00 +6°C° 0 mm 4 mps 754 mmHg 85%
    21:00 +6°C° 0 mm 4 mps 754 mmHg 88%
    22:00 +5°C° 0 mm 4 mps 753 mmHg 90%
    23:00 +5°C° 0 mm 4 mps 753 mmHg 92%

    19 Octubre, Viernes

    Tiempo Temperatura Precipitaciones Viento Presión Humedad
    00:00 +5°C° 0 mm 4 mps 753 mmHg 94%
    01:00 +5°C° 0 mm 4 mps 753 mmHg 94%
    02:00 +5°C° 0 mm 4 mps 752 mmHg 95%
    03:00 +5°C° 0 mm 3 mps 752 mmHg 96%
    04:00 +5°C° 0 mm 4 mps 752 mmHg 96%
    05:00 +5°C° 0 mm 4 mps 752 mmHg 96%
    06:00 +4°C° 0 mm 4 mps 751 mmHg 96%
    07:00 +5°C° 0 mm 4 mps 751 mmHg 94%
    08:00 +6°C° 0 mm 4 mps 751 mmHg 91%
    09:00 +7°C° 0 mm 5 mps 751 mmHg 88%
    10:00 +9°C° 0 mm 5 mps 751 mmHg 84%
    11:00 +10°C° 0 mm 5 mps 750 mmHg 79%
    12:00 +12°C° 0 mm 5 mps 750 mmHg 74%
    13:00 +13°C° 0 mm 5 mps 750 mmHg 74%
    14:00 +13°C° 0 mm 5 mps 750 mmHg 74%
    15:00 +14°C° 0 mm 5 mps 749 mmHg 74%
    16:00 +13°C° 0 mm 4 mps 749 mmHg 77%
    17:00 +12°C° 0 mm 4 mps 749 mmHg 80%
    18:00 +11°C° 0 mm 4 mps 749 mmHg 83%
    19:00 +11°C° 0 mm 4 mps 749 mmHg 83%
    20:00 +12°C° 0 mm 4 mps 749 mmHg 82%
    21:00 +12°C° 0 mm 4 mps 749 mmHg 81%
    22:00 +11°C° 0 mm 4 mps 749 mmHg 82%
    23:00 +11°C° 0 mm 4 mps 749 mmHg 82%

    20 Octubre, Sábado

    Tiempo Temperatura Precipitaciones Viento Presión Humedad
    00:00 +11°C° 0 mm 4 mps 748 mmHg 83%
    01:00 +11°C° 0 mm 4 mps 748 mmHg 84%
    02:00 +11°C° 0 mm 4 mps 748 mmHg 85%
    03:00 +10°C° 0 mm 3 mps 748 mmHg 87%
    04:00 +10°C° 0 mm 3 mps 748 mmHg 88%
    05:00 +10°C° 0 mm 3 mps 748 mmHg 90%
    06:00 +10°C° 0 mm 3 mps 748 mmHg 91%
    07:00 +10°C° 0 mm 3 mps 748 mmHg 90%
    08:00 +10°C° 0 mm 3 mps 748 mmHg 88%
    09:00 +10°C° 0 mm 4 mps 749 mmHg 86%
    10:00 +11°C° 0 mm 4 mps 749 mmHg 78%
    11:00 +11°C° 0 mm 4 mps 749 mmHg 69%
    12:00 +12°C° 0 mm 4 mps 749 mmHg 60%
    13:00 +11°C° 0 mm 4 mps 749 mmHg 59%
    14:00 +11°C° 0 mm 4 mps 749 mmHg 58%
    15:00 +11°C° 0 mm 4 mps 749 mmHg 57%
    16:00 +10°C° 0 mm 4 mps 750 mmHg 62%
    17:00 +8°C° 0 mm 3 mps 750 mmHg 67%
    18:00 +7°C° 0 mm 3 mps 750 mmHg 72%
    19:00 +7°C° 0 mm 3 mps 751 mmHg 75%
    20:00 +5°C° 0 mm 3 mps 751 mmHg 78%
    21:00 +5°C° 0 mm 2 mps 751 mmHg 82%
    22:00 +5°C° 0 mm 2 mps 752 mmHg 83%
    23:00 +5°C° 0 mm 2 mps 752 mmHg 84%

    21 Octubre, Domingo

    Tiempo Temperatura Precipitaciones Viento Presión Humedad
    00:00 +4°C° 0 mm 2 mps 752 mmHg 85%
    01:00 +4°C° 0 mm 2 mps 752 mmHg 86%
    02:00 +4°C° 0 mm 2 mps 753 mmHg 86%
    03:00 +3°C° 0 mm 2 mps 753 mmHg 87%
    04:00 +3°C° 0 mm 2 mps 753 mmHg 88%
    05:00 +3°C° 0 mm 2 mps 753 mmHg 90%
    06:00 +2°C° 0 mm 2 mps 753 mmHg 91%
    07:00 +3°C° 0 mm 2 mps 753 mmHg 88%
    08:00 +4°C° 0 mm 2 mps 754 mmHg 84%
    09:00 +5°C° 0 mm 2 mps 754 mmHg 81%
    10:00 +6°C° 0 mm 2 mps 754 mmHg 76%
    11:00 +7°C° 0 mm 2 mps 754 mmHg 70%
    12:00 +7°C° 0 mm 2 mps 754 mmHg 65%
    13:00 +7°C° 0 mm 2 mps 754 mmHg 65%
    14:00 +7°C° 0 mm 2 mps 754 mmHg 65%
    15:00 +7°C° 0 mm 2 mps 754 mmHg 65%
    16:00 +6°C° 0 mm 2 mps 754 mmHg 70%
    17:00 +6°C° 0 mm 1 mps 754 mmHg 75%
    18:00 +5°C° 0 mm 1 mps 754 mmHg 80%
    19:00 +5°C° 0 mm 1 mps 754 mmHg 82%
    20:00 +4°C° 0 mm 1 mps 754 mmHg 84%
    21:00 +4°C° 0 mm 1 mps 754 mmHg 86%
    22:00 +4°C° 0 mm 1 mps 754 mmHg 88%
    23:00 +3°C° 0 mm 1 mps 754 mmHg 89%
    Mostrar más